• In Germany
  • List of Countries
  • For 7 days
  • Water Temperature
  • Satellite Maps
  • Weather Map
  • Weather Widgets
  • user-avatar
    Login

    Hourly Weather Veliko Tarnovo

    Today, 22 July, Sunday

    Time Temperature Precipitation Wind Pressure Humidity
    00:00 +22°C° 0 mm 1 mps 736 mmHg 62%
    01:00 +22°C° 0 mm 1 mps 736 mmHg 62%
    02:00 +22°C° 0 mm 1 mps 736 mmHg 62%
    03:00 +21°C° 0 mm 1 mps 736 mmHg 63%
    04:00 +21°C° 0 mm 1 mps 736 mmHg 63%
    05:00 +21°C° 0 mm 1 mps 736 mmHg 64%
    06:00 +23°C° 0 mm 1 mps 736 mmHg 60%
    07:00 +25°C° 0 mm 1 mps 736 mmHg 55%
    08:00 +27°C° 0 mm 1 mps 736 mmHg 51%
    09:00 +29°C° 0 mm 1 mps 736 mmHg 47%
    10:00 +30°C° 0 mm 1 mps 736 mmHg 43%
    11:00 +32°C° 0 mm 1 mps 735 mmHg 39%
    12:00 +33°C° 0 mm 1 mps 735 mmHg 37%
    13:00 +34°C° 0 mm 1 mps 735 mmHg 36%
    14:00 +34°C° 0 mm 1 mps 734 mmHg 34%
    15:00 +35°C° 0 mm 2 mps 734 mmHg 36%
    16:00 +35°C° 0 mm 2 mps 733 mmHg 38%
    17:00 +34°C° 0 mm 2 mps 733 mmHg 39%
    18:00 +31°C° 0.2 mm 2 mps 733 mmHg 47%
    19:00 +28°C° 0.2 mm 2 mps 733 mmHg 55%
    20:00 +26°C° 0.2 mm 2 mps 732 mmHg 62%
    21:00 +25°C° 0.1 mm 2 mps 733 mmHg 64%
    22:00 +25°C° 0.1 mm 2 mps 733 mmHg 66%
    23:00 +24°C° 0.1 mm 2 mps 733 mmHg 68%

    Tomorrow, 23 July, Monday

    Time Temperature Precipitation Wind Pressure Humidity
    00:00 +23°C° 0.3 mm 2 mps 733 mmHg 71%
    01:00 +23°C° 0.3 mm 2 mps 733 mmHg 74%
    02:00 +21°C° 0.3 mm 2 mps 733 mmHg 77%
    03:00 +21°C° 0 mm 2 mps 732 mmHg 78%
    04:00 +22°C° 0 mm 1 mps 732 mmHg 79%
    05:00 +22°C° 0 mm 1 mps 732 mmHg 81%
    06:00 +23°C° 0 mm 1 mps 732 mmHg 78%
    07:00 +24°C° 0 mm 2 mps 732 mmHg 75%
    08:00 +25°C° 0 mm 2 mps 732 mmHg 72%
    09:00 +27°C° 0.5 mm 2 mps 732 mmHg 67%
    10:00 +28°C° 0.5 mm 2 mps 732 mmHg 62%
    11:00 +29°C° 0.5 mm 2 mps 732 mmHg 57%
    12:00 +29°C° 1.6 mm 2 mps 731 mmHg 56%
    13:00 +30°C° 1.6 mm 2 mps 731 mmHg 55%
    14:00 +30°C° 1.6 mm 2 mps 731 mmHg 54%
    15:00 +30°C° 0.1 mm 1 mps 730 mmHg 56%
    16:00 +29°C° 0.1 mm 1 mps 730 mmHg 57%
    17:00 +29°C° 0.1 mm 1 mps 730 mmHg 58%
    18:00 +27°C° 1.1 mm 1 mps 730 mmHg 65%
    19:00 +25°C° 1.1 mm 1 mps 730 mmHg 72%
    20:00 +23°C° 1.1 mm 2 mps 730 mmHg 79%
    21:00 +23°C° 1.8 mm 2 mps 730 mmHg 83%
    22:00 +21°C° 1.8 mm 2 mps 731 mmHg 86%
    23:00 +21°C° 1.8 mm 2 mps 731 mmHg 89%

    Day after tomorrow, 24 July, Tuesday

    Time Temperature Precipitation Wind Pressure Humidity
    00:00 +20°C° 0 mm 2 mps 730 mmHg 89%
    01:00 +20°C° 0 mm 2 mps 730 mmHg 90%
    02:00 +20°C° 0 mm 1 mps 730 mmHg 90%
    03:00 +20°C° 0.3 mm 1 mps 730 mmHg 91%
    04:00 +18°C° 0.3 mm 2 mps 730 mmHg 91%
    05:00 +18°C° 0.3 mm 2 mps 730 mmHg 91%
    06:00 +19°C° 0.4 mm 2 mps 730 mmHg 89%
    07:00 +20°C° 0.4 mm 2 mps 730 mmHg 87%
    08:00 +20°C° 0.4 mm 2 mps 731 mmHg 85%
    09:00 +23°C° 0.5 mm 2 mps 731 mmHg 81%
    10:00 +24°C° 0.5 mm 2 mps 731 mmHg 77%
    11:00 +25°C° 0.5 mm 2 mps 731 mmHg 74%
    12:00 +26°C° 1.1 mm 2 mps 731 mmHg 70%
    13:00 +27°C° 1.1 mm 2 mps 731 mmHg 66%
    14:00 +28°C° 1.1 mm 2 mps 731 mmHg 63%
    15:00 +27°C° 0.9 mm 3 mps 731 mmHg 64%
    16:00 +27°C° 0.9 mm 3 mps 730 mmHg 65%
    17:00 +27°C° 0.9 mm 3 mps 730 mmHg 66%
    18:00 +26°C° 0.8 mm 2 mps 731 mmHg 72%
    19:00 +24°C° 0.8 mm 2 mps 731 mmHg 78%
    20:00 +23°C° 0.8 mm 2 mps 731 mmHg 84%
    21:00 +21°C° 0.7 mm 2 mps 731 mmHg 86%
    22:00 +21°C° 0.7 mm 2 mps 731 mmHg 87%
    23:00 +21°C° 0.7 mm 1 mps 732 mmHg 89%

    25 July, Wednesday

    Time Temperature Precipitation Wind Pressure Humidity
    00:00 +21°C° 0.3 mm 1 mps 732 mmHg 89%
    01:00 +20°C° 0.3 mm 1 mps 732 mmHg 89%
    02:00 +20°C° 0.3 mm 1 mps 732 mmHg 89%
    03:00 +20°C° 0.1 mm 1 mps 732 mmHg 90%
    04:00 +20°C° 0.1 mm 1 mps 732 mmHg 92%
    05:00 +20°C° 0.1 mm 1 mps 732 mmHg 93%
    06:00 +21°C° 0.2 mm 1 mps 732 mmHg 89%
    07:00 +21°C° 0.2 mm 2 mps 733 mmHg 86%
    08:00 +23°C° 0.2 mm 2 mps 733 mmHg 82%
    09:00 +24°C° 0.6 mm 2 mps 733 mmHg 78%
    10:00 +25°C° 0.6 mm 2 mps 733 mmHg 73%
    11:00 +27°C° 0.6 mm 2 mps 733 mmHg 69%
    12:00 +27°C° 0.9 mm 2 mps 733 mmHg 66%
    13:00 +28°C° 0.9 mm 2 mps 733 mmHg 63%
    14:00 +29°C° 0.9 mm 2 mps 733 mmHg 60%
    15:00 +29°C° 1.2 mm 2 mps 733 mmHg 62%
    16:00 +28°C° 1.2 mm 2 mps 733 mmHg 64%
    17:00 +28°C° 1.2 mm 2 mps 733 mmHg 66%
    18:00 +27°C° 0.5 mm 2 mps 733 mmHg 70%
    19:00 +25°C° 0.5 mm 1 mps 733 mmHg 75%
    20:00 +24°C° 0.5 mm 1 mps 733 mmHg 79%
    21:00 +23°C° 0.1 mm 1 mps 733 mmHg 81%
    22:00 +23°C° 0.1 mm 1 mps 733 mmHg 83%
    23:00 +22°C° 0.1 mm 1 mps 734 mmHg 85%

    26 July, Thursday

    Time Temperature Precipitation Wind Pressure Humidity
    00:00 +22°C° 0.5 mm 1 mps 733 mmHg 86%
    01:00 +22°C° 0.5 mm 1 mps 733 mmHg 87%
    02:00 +21°C° 0.5 mm 1 mps 733 mmHg 89%
    03:00 +21°C° 0.5 mm 1 mps 733 mmHg 90%
    04:00 +21°C° 0.5 mm 1 mps 734 mmHg 90%
    05:00 +21°C° 0.5 mm 1 mps 734 mmHg 91%
    06:00 +22°C° 0.3 mm 1 mps 734 mmHg 88%
    07:00 +23°C° 0.3 mm 1 mps 734 mmHg 84%
    08:00 +24°C° 0.3 mm 1 mps 735 mmHg 80%
    09:00 +26°C° 0.7 mm 1 mps 734 mmHg 76%
    10:00 +27°C° 0.7 mm 2 mps 734 mmHg 71%
    11:00 +28°C° 0.7 mm 2 mps 734 mmHg 67%
    12:00 +29°C° 0.6 mm 2 mps 734 mmHg 63%
    13:00 +30°C° 0.6 mm 2 mps 734 mmHg 59%
    14:00 +30°C° 0.6 mm 2 mps 734 mmHg 55%
    15:00 +30°C° 0.4 mm 2 mps 734 mmHg 57%
    16:00 +30°C° 0.4 mm 2 mps 734 mmHg 58%
    17:00 +30°C° 0.4 mm 2 mps 734 mmHg 59%
    18:00 +28°C° 0.4 mm 2 mps 734 mmHg 64%
    19:00 +27°C° 0.4 mm 1 mps 734 mmHg 69%
    20:00 +25°C° 0.4 mm 1 mps 734 mmHg 74%
    21:00 +25°C° 0.5 mm 1 mps 734 mmHg 77%
    22:00 +24°C° 0.5 mm 1 mps 735 mmHg 80%
    23:00 +23°C° 0.5 mm 1 mps 735 mmHg 83%

    27 July, Friday

    Time Temperature Precipitation Wind Pressure Humidity
    00:00 +23°C° 0.2 mm 1 mps 735 mmHg 84%
    01:00 +22°C° 0.2 mm 1 mps 735 mmHg 86%
    02:00 +22°C° 0.2 mm 1 mps 735 mmHg 87%
    03:00 +22°C° 0.4 mm 1 mps 735 mmHg 88%
    04:00 +21°C° 0.4 mm 1 mps 735 mmHg 89%
    05:00 +21°C° 0.4 mm 1 mps 735 mmHg 91%
    06:00 +23°C° 0.3 mm 1 mps 735 mmHg 86%
    07:00 +24°C° 0.3 mm 1 mps 736 mmHg 82%
    08:00 +26°C° 0.3 mm 1 mps 736 mmHg 78%
    09:00 +27°C° 0.7 mm 1 mps 736 mmHg 71%
    10:00 +29°C° 0.7 mm 1 mps 736 mmHg 65%
    11:00 +30°C° 0.7 mm 1 mps 736 mmHg 58%
    12:00 +31°C° 0.1 mm 2 mps 735 mmHg 55%
    13:00 +31°C° 0.1 mm 2 mps 735 mmHg 51%
    14:00 +32°C° 0.1 mm 2 mps 735 mmHg 48%
    15:00 +32°C° 0 mm 2 mps 735 mmHg 48%
    16:00 +32°C° 0 mm 2 mps 735 mmHg 49%
    17:00 +32°C° 0 mm 2 mps 735 mmHg 50%
    18:00 +30°C° 0 mm 2 mps 735 mmHg 55%
    19:00 +28°C° 0 mm 1 mps 735 mmHg 60%
    20:00 +26°C° 0 mm 1 mps 735 mmHg 66%
    21:00 +26°C° 0 mm 1 mps 735 mmHg 68%
    22:00 +25°C° 0 mm 1 mps 735 mmHg 70%
    23:00 +25°C° 0 mm 1 mps 735 mmHg 72%
    Show more